Retour au catalogue

DELTA 1 DEB

ActifLEO
NORAD 13532·DEBRIS·🇺🇸 United States

Lancé Jul 29, 1976 depuis Vandenberg Space Force Base

Loading…

Prochains Passages (prochaines 24 heures)

TLE

FraisSource: Space-Track

Époque: Sep 14, 2026, 06:58 UTC

1 13532U 76077EE  26257.29094698 -.00000145  00000-0 -12428-2 0  9991
2 13532 102.2633 185.7396 0283745 209.4914 307.2595 11.94111820972287

Suivez DELTA 1 DEB en temps réel avec AllMySat

Download on the App Store